| time (UTC) | temp F | wind direction | speed knots | gust knots | rain 1hr in | rain 24hr in | rain mn in | humidity % | barometer mb |
| 20260508084529 | 46 | 246 | 0.0 | 0.0 | 0.00 | 0.00 | 0.00 | 81 | 1012.3 |
| 20260508083034 | 46 | 244 | 0.0 | 0.0 | 0.00 | 0.00 | 0.00 | 80 | 1012.4 |
| 20260508081527 | 46 | 244 | 0.0 | 0.0 | 0.00 | 0.00 | 0.00 | 79 | 1012.4 |
| 20260508080024 | 47 | 244 | 0.0 | 0.0 | 0.00 | 0.00 | 0.00 | 78 | 1012.3 |
| 20260508074532 | 47 | 259 | 0.0 | 0.0 | 0.00 | 0.00 | 0.00 | 76 | 1012.4 |
| 20260508073021 | 48 | 262 | 0.0 | 4.3 | 0.00 | 0.00 | 0.00 | 75 | 1012.5 |
| 20260508071522 | 48 | 250 | 0.0 | 5.2 | 0.00 | 0.00 | 0.00 | 74 | 1012.6 |
| 20260508070019 | 48 | 223 | 0.0 | 8.7 | 0.00 | 0.00 | 0.00 | 72 | 1012.6 |
| 20260508064517 | 48 | 232 | 0.0 | 0.0 | 0.00 | 0.00 | 0.00 | 72 | 1012.6 |
| 20260508063016 | 48 | 227 | 0.0 | 0.0 | 0.00 | 0.00 | 0.00 | 72 | 1012.5 |
| 20260508061518 | 48 | 269 | 0.0 | 0.0 | 0.00 | 0.00 | 0.00 | 73 | 1012.6 |
| 20260508060014 | 48 | 269 | 0.0 | 0.0 | 0.00 | 0.00 | 0.00 | 73 | 1012.6 |
| 20260508054514 | 48 | 268 | 0.0 | 0.0 | 0.00 | 0.00 | 0.00 | 73 | 1012.8 |
| 20260508053021 | 48 | 268 | 0.0 | 0.0 | 0.00 | 0.00 | 0.00 | 72 | 1013.0 |
| 20260508051510 | 48 | 267 | 0.0 | 0.0 | 0.00 | 0.00 | 0.00 | 71 | 1013.2 |
| 20260508050009 | 48 | 259 | 0.0 | 0.0 | 0.00 | 0.00 | 0.00 | 72 | 1013.2 |
| 20260508044509 | 48 | 259 | 0.0 | 0.0 | 0.00 | 0.00 | 0.00 | 72 | 1013.2 |
| 20260508043007 | 48 | 259 | 0.0 | 0.0 | 0.00 | 0.00 | 0.00 | 72 | 1013.2 |
| 20260508041506 | 48 | 259 | 0.0 | 0.0 | 0.00 | 0.00 | 0.00 | 72 | 1013.2 |
| 20260508040004 | 47 | 259 | 0.0 | 0.0 | 0.00 | 0.00 | 0.00 | 71 | 1013.2 |
| 20260508034503 | 47 | 271 | 0.0 | 0.0 | 0.00 | 0.00 | 0.00 | 72 | 1013.2 |
| 20260508033002 | 46 | 271 | 0.0 | 0.0 | 0.00 | 0.00 | 0.00 | 72 | 1013.4 |
| 20260508031502 | 46 | 266 | 0.0 | 0.0 | 0.00 | 0.00 | 0.00 | 74 | 1013.3 |
| 20260508030001 | 46 | 266 | 0.0 | 0.0 | 0.00 | 0.00 | 0.00 | 72 | 1013.4 |
| 20260508024502 | 46 | 266 | 0.0 | 0.0 | 0.00 | 0.00 | 0.00 | 70 | 1013.3 |
| 20260508023000 | 46 | 266 | 0.0 | 0.0 | 0.00 | 0.00 | 0.00 | 67 | 1013.3 |
| 20260508021601 | 46 | 266 | 0.0 | 0.0 | 0.00 | 0.00 | 0.00 | 66 | 1013.3 |
| 20260508020100 | 47 | 267 | 0.0 | 0.0 | 0.00 | 0.00 | 0.00 | 65 | 1013.2 |
| 20260508014559 | 48 | 266 | 0.0 | 0.0 | 0.00 | 0.00 | 0.00 | 63 | 1013.1 |
| 20260508013059 | 49 | 266 | 0.0 | 0.0 | 0.00 | 0.00 | 0.00 | 62 | 1013.0 |
| 20260508011602 | 50 | 267 | 0.0 | 0.0 | 0.00 | 0.00 | 0.00 | 59 | 1012.8 |
| 20260508010058 | 51 | 266 | 0.0 | 0.0 | 0.00 | 0.00 | 0.00 | 58 | 1012.8 |
| 20260508004600 | 52 | 266 | 0.0 | 0.0 | 0.00 | 0.00 | 0.00 | 58 | 1012.7 |
| 20260508003105 | 52 | 266 | 0.0 | 0.0 | 0.00 | 0.00 | 0.00 | 57 | 1012.7 |
| 20260508001557 | 52 | 267 | 0.0 | 0.0 | 0.00 | 0.00 | 0.00 | 51 | 1012.7 |
| 20260508000056 | 53 | 262 | 0.0 | 5.2 | 0.00 | 0.00 | 0.00 | 49 | 1012.5 |
| 20260507234556 | 53 | 265 | 0.0 | 4.3 | 0.00 | 0.00 | 0.00 | 48 | 1012.5 |
| 20260507233102 | 54 | 279 | 0.9 | 9.6 | 0.00 | 0.00 | 0.00 | 46 | 1012.5 |
| 20260507231555 | 54 | 300 | 0.0 | 11.3 | 0.00 | 0.00 | 0.00 | 47 | 1012.4 |
| 20260507230055 | 54 | 241 | 0.9 | 13.9 | 0.00 | 0.00 | 0.00 | 46 | 1012.6 |
| 20260507224558 | 55 | 300 | 0.9 | 10.4 | 0.00 | 0.00 | 0.00 | 45 | 1012.7 |
| 20260507223056 | 56 | 228 | 0.9 | 7.0 | 0.00 | 0.00 | 0.00 | 45 | 1012.6 |
| 20260507221553 | 56 | 251 | 1.7 | 10.4 | 0.00 | 0.00 | 0.00 | 43 | 1012.7 |
| 20260507220052 | 56 | 296 | 0.9 | 7.0 | 0.00 | 0.00 | 0.00 | 43 | 1012.6 |
| 20260507214604 | 56 | 277 | 2.6 | 13.0 | 0.00 | 0.00 | 0.00 | 41 | 1012.4 |
| 20260507213102 | 56 | 219 | 0.0 | 9.6 | 0.00 | 0.00 | 0.00 | 44 | 1012.4 |
| 20260507211550 | 56 | 24 | 0.0 | 11.3 | 0.00 | 0.00 | 0.00 | 51 | 1012.4 |
| 20260507210051 | 56 | 209 | 0.0 | 9.6 | 0.00 | 0.00 | 0.00 | 52 | 1012.1 |
| 20260507204549 | 55 | 271 | 0.9 | 5.2 | 0.00 | 0.00 | 0.00 | 56 | 1012.1 |
| 20260507203048 | 54 | 252 | 0.0 | 2.6 | 0.00 | 0.00 | 0.00 | 57 | 1012.1 |
| 20260507201549 | 56 | 253 | 0.9 | 7.0 | 0.00 | 0.00 | 0.00 | 57 | 1012.1 |
| 20260507200049 | 57 | 236 | 0.0 | 4.3 | 0.00 | 0.00 | 0.00 | 53 | 1011.8 |
| 20260507194614 | 58 | 233 | 0.0 | 7.0 | 0.00 | 0.00 | 0.00 | 50 | 1011.9 |
| 20260507193046 | 58 | 203 | 0.0 | 8.7 | 0.00 | 0.00 | 0.00 | 49 | 1011.9 |
| 20260507191546 | 58 | 284 | 1.7 | 7.0 | 0.00 | 0.00 | 0.00 | 52 | 1012.1 |
| 20260507190050 | 57 | 304 | 0.9 | 7.0 | 0.00 | 0.00 | 0.00 | 53 | 1012.2 |
| 20260507184542 | 57 | 211 | 0.9 | 8.7 | 0.00 | 0.00 | 0.00 | 58 | 1012.2 |
| 20260507183046 | 56 | 227 | 0.9 | 5.2 | 0.00 | 0.00 | 0.00 | 56 | 1012.3 |
| 20260507181546 | 55 | 75 | 0.0 | 12.2 | 0.00 | 0.00 | 0.00 | 58 | 1012.3 |
| 20260507180040 | 56 | 288 | 0.0 | 2.6 | 0.00 | 0.00 | 0.00 | 56 | 1012.2 |
| 20260507174551 | 56 | 270 | 0.0 | 3.5 | 0.00 | 0.00 | 0.00 | 54 | 1012.3 |
| 20260507173054 | 57 | 319 | 0.0 | 3.5 | 0.00 | 0.00 | 0.00 | 53 | 1012.4 |
| 20260507171546 | 57 | 290 | 0.0 | 7.8 | 0.00 | 0.00 | 0.00 | 53 | 1012.6 |
| 20260507170035 | 58 | 265 | 0.0 | 5.2 | 0.00 | 0.00 | 0.00 | 57 | 1012.6 |
| 20260507164546 | 57 | 236 | 0.0 | 5.2 | 0.00 | 0.00 | 0.00 | 59 | 1012.6 |
| 20260507163032 | 55 | 287 | 0.0 | 5.2 | 0.00 | 0.00 | 0.00 | 61 | 1012.7 |
| 20260507161547 | 54 | 200 | 1.7 | 6.1 | 0.00 | 0.00 | 0.00 | 56 | 1012.8 |
| 20260507160037 | 55 | 275 | 0.0 | 6.1 | 0.00 | 0.00 | 0.00 | 54 | 1012.8 |
| 20260507154535 | 55 | 315 | 0.0 | 4.3 | 0.00 | 0.00 | 0.00 | 53 | 1012.7 |
| 20260507153029 | 56 | 256 | 1.7 | 6.1 | 0.00 | 0.00 | 0.00 | 53 | 1012.7 |
| 20260507151527 | 56 | 344 | 0.0 | 2.6 | 0.00 | 0.00 | 0.00 | 58 | 1012.9 |
| 20260507150026 | 55 | 306 | 0.0 | 2.6 | 0.00 | 0.00 | 0.00 | 57 | 1012.9 |
| 20260507144531 | 55 | 275 | 0.9 | 5.2 | 0.00 | 0.00 | 0.00 | 57 | 1012.8 |
| 20260507143025 | 55 | 246 | 0.0 | 3.5 | 0.00 | 0.00 | 0.00 | 61 | 1012.8 |
| 20260507141522 | 54 | 311 | 0.0 | 0.9 | 0.00 | 0.00 | 0.00 | 63 | 1012.9 |
| 20260507140017 | 53 | 241 | 0.0 | 2.6 | 0.00 | 0.00 | 0.00 | 66 | 1013.1 |
| 20260507134518 | 52 | 234 | 0.0 | 0.0 | 0.00 | 0.00 | 0.00 | 70 | 1013.2 |
| 20260507133013 | 51 | 275 | 1.7 | 5.2 | 0.00 | 0.00 | 0.00 | 70 | 1013.3 |
| 20260507131508 | 50 | 269 | 0.0 | 0.9 | 0.00 | 0.00 | 0.00 | 70 | 1013.4 |
| 20260507130005 | 49 | 246 | 0.0 | 2.6 | 0.00 | 0.00 | 0.00 | 74 | 1013.4 |
| 20260507124502 | 48 | 234 | 0.0 | 0.0 | 0.00 | 0.00 | 0.00 | 77 | 1013.4 |
| 20260507123058 | 47 | 253 | 0.0 | 2.6 | 0.00 | 0.00 | 0.00 | 77 | 1013.4 |
| 20260507121556 | 46 | 279 | 0.0 | 2.6 | 0.00 | 0.00 | 0.00 | 79 | 1013.3 |
| 20260507114607 | 44 | 267 | 0.0 | 2.6 | 0.00 | 0.00 | 0.00 | 82 | 1013.2 |
| 20260507113054 | 43 | 259 | 0.0 | 0.0 | 0.00 | 0.00 | 0.00 | 84 | 1013.1 |
| 20260507111556 | 43 | 259 | 0.0 | 0.0 | 0.00 | 0.00 | 0.00 | 84 | 1013.1 |
| 20260507104553 | 43 | 259 | 0.0 | 0.0 | 0.00 | 0.00 | 0.00 | 85 | 1012.8 |
| 20260507103053 | 43 | 259 | 0.0 | 0.0 | 0.00 | 0.00 | 0.00 | 85 | 1012.7 |
| 20260507101600 | 43 | 259 | 0.0 | 0.0 | 0.00 | 0.00 | 0.00 | 85 | 1012.7 |
| 20260507100052 | 43 | 259 | 0.0 | 0.0 | 0.00 | 0.02 | 0.00 | 85 | 1012.7 |
| 20260507094556 | 42 | 259 | 0.0 | 0.0 | 0.00 | 0.02 | 0.00 | 84 | 1012.7 |
| 20260507093050 | 42 | 259 | 0.0 | 0.0 | 0.00 | 0.02 | 0.00 | 85 | 1012.7 |
| 20260507091550 | 42 | 259 | 0.0 | 0.0 | 0.00 | 0.02 | 0.00 | 86 | 1012.8 |
| 20260507090054 | 42 | 46 | 0.0 | 0.0 | 0.00 | 0.06 | 0.00 | 87 | 1012.7 |